Time,TemperatureF,DewpointF,PressureIn,WindDirection,WindDirectionDegrees,WindSpeedMPH,WindSpeedGustMPH,Humidity,HourlyPrecipIn,Conditions,Clouds,dailyrainin,SoftwareType,DateUTC
2013-05-29 00:01:00,48.0,42.0,-100.00,NNW,345,9.0,11.0,80,-99.99,,,-99.99,,2013-05-29 06:01:00,
2013-05-29 00:11:00,48.0,42.0,-100.00,NNW,340,11.0,14.0,80,-99.99,,,-99.99,,2013-05-29 06:11:00,
2013-05-29 00:21:00,47.0,42.0,-100.00,NNW,335,10.0,13.0,81,-99.99,,,-99.99,,2013-05-29 06:21:00,
2013-05-29 00:31:00,47.0,42.0,-100.00,NNW,345,15.0,19.0,80,-99.99,,,-99.99,,2013-05-29 06:31:00,
2013-05-29 00:41:00,48.0,42.0,-100.00,North,350,15.0,19.0,79,-99.99,,,-99.99,,2013-05-29 06:41:00,
2013-05-29 00:51:00,48.0,42.0,-100.00,North,355,15.0,18.0,79,-99.99,,,-99.99,,2013-05-29 06:51:00,
2013-05-29 01:01:00,47.0,42.0,-100.00,North,5,15.0,19.0,79,-99.99,,,-99.99,,2013-05-29 07:01:00,
2013-05-29 01:11:00,47.0,42.0,-100.00,North,5,16.0,21.0,81,-99.99,,,-99.99,,2013-05-29 07:11:00,
2013-05-29 01:21:00,47.0,42.0,-100.00,North,5,15.0,19.0,82,-99.99,,,-99.99,,2013-05-29 07:21:00,
2013-05-29 01:34:00,46.0,42.0,-100.00,North,5,16.0,21.0,85,-99.99,,,-99.99,,2013-05-29 07:34:00,
2013-05-29 01:41:00,46.0,43.0,-100.00,North,0,17.0,24.0,89,-99.99,,,-99.99,,2013-05-29 07:41:00,
2013-05-29 01:52:00,46.0,43.0,-100.00,North,0,20.0,24.0,89,-99.99,,,-99.99,,2013-05-29 07:52:00,
2013-05-29 02:02:00,45.0,44.0,-100.00,North,5,18.0,22.0,93,-99.99,,,-99.99,,2013-05-29 08:02:00,
2013-05-29 02:11:00,45.0,44.0,-100.00,North,0,17.0,24.0,95,-99.99,,,-99.99,,2013-05-29 08:11:00,
2013-05-29 02:21:00,45.0,44.0,-100.00,North,10,17.0,24.0,98,-99.99,,,-99.99,,2013-05-29 08:21:00,
2013-05-29 02:31:00,45.0,45.0,-100.00,North,0,17.0,24.0,99,-99.99,,,-99.99,,2013-05-29 08:31:00,
2013-05-29 02:41:00,45.0,45.0,-100.00,North,0,14.0,22.0,99,-99.99,,,-99.99,,2013-05-29 08:41:00,
2013-05-29 02:51:00,45.0,45.0,-100.00,North,350,13.0,23.0,99,-99.99,,,-99.99,,2013-05-29 08:51:00,
2013-05-29 03:01:00,45.0,45.0,-100.00,North,0,11.0,14.0,99,-99.99,,,-99.99,,2013-05-29 09:01:00,
2013-05-29 03:11:00,45.0,45.0,-100.00,NNW,345,12.0,15.0,99,-99.99,,,-99.99,,2013-05-29 09:11:00,
2013-05-29 03:21:00,45.0,45.0,-100.00,North,0,16.0,21.0,99,-99.99,,,-99.99,,2013-05-29 09:21:00,
2013-05-29 03:32:00,45.0,45.0,-100.00,North,5,21.0,26.0,99,-99.99,,,-99.99,,2013-05-29 09:32:00,
2013-05-29 03:42:00,45.0,45.0,-100.00,North,355,17.0,24.0,99,-99.99,,,-99.99,,2013-05-29 09:42:00,
2013-05-29 03:52:00,45.0,45.0,-100.00,North,350,16.0,18.0,99,-99.99,,,-99.99,,2013-05-29 09:52:00,
2013-05-29 04:02:00,45.0,45.0,-100.00,North,0,16.0,21.0,99,-99.99,,,-99.99,,2013-05-29 10:02:00,
2013-05-29 04:12:00,44.0,44.0,-100.00,North,0,17.0,22.0,99,-99.99,,,-99.99,,2013-05-29 10:12:00,
2013-05-29 04:22:00,44.0,44.0,-100.00,North,0,16.0,21.0,99,-99.99,,,-99.99,,2013-05-29 10:22:00,
2013-05-29 04:32:00,44.0,44.0,-100.00,North,0,18.0,24.0,99,-99.99,,,-99.99,,2013-05-29 10:32:00,
2013-05-29 04:42:00,44.0,44.0,-100.00,North,0,14.0,21.0,99,-99.99,,,-99.99,,2013-05-29 10:42:00,
2013-05-29 04:52:00,44.0,44.0,-100.00,North,0,16.0,23.0,99,-99.99,,,-99.99,,2013-05-29 10:52:00,
2013-05-29 05:02:00,44.0,44.0,-100.00,North,0,16.0,24.0,99,-99.99,,,-99.99,,2013-05-29 11:02:00,
2013-05-29 05:11:00,44.0,44.0,-100.00,NNW,345,20.0,24.0,99,-99.99,,,-99.99,,2013-05-29 11:11:00,
2013-05-29 05:21:00,44.0,44.0,-100.00,North,355,17.0,23.0,99,-99.99,,,-99.99,,2013-05-29 11:21:00,
2013-05-29 05:32:00,44.0,44.0,-100.00,North,350,16.0,23.0,99,-99.99,,,-99.99,,2013-05-29 11:32:00,
2013-05-29 05:41:00,44.0,44.0,-100.00,North,0,19.0,26.0,99,-99.99,,,-99.99,,2013-05-29 11:41:00,
2013-05-29 05:51:00,44.0,44.0,-100.00,North,350,20.0,27.0,99,-99.99,,,-99.99,,2013-05-29 11:51:00,
2013-05-29 06:01:00,44.0,44.0,-100.00,North,0,21.0,26.0,99,-99.99,,,-99.99,,2013-05-29 12:01:00,
2013-05-29 06:11:00,44.0,44.0,-100.00,North,355,18.0,25.0,99,-99.99,,,-99.99,,2013-05-29 12:11:00,
2013-05-29 06:21:00,43.0,43.0,-100.00,North,350,19.0,24.0,99,-99.99,,,-99.99,,2013-05-29 12:21:00,
2013-05-29 06:31:00,43.0,43.0,-100.00,North,0,17.0,23.0,99,-99.99,,,-99.99,,2013-05-29 12:31:00,
2013-05-29 06:41:00,43.0,43.0,-100.00,NNW,345,17.0,22.0,99,-99.99,,,-99.99,,2013-05-29 12:41:00,
2013-05-29 06:51:00,43.0,43.0,-100.00,NNW,345,17.0,21.0,99,-99.99,,,-99.99,,2013-05-29 12:51:00,
2013-05-29 07:01:00,43.0,43.0,-100.00,NNW,340,16.0,22.0,99,-99.99,,,-99.99,,2013-05-29 13:01:00,
2013-05-29 07:11:00,43.0,43.0,-100.00,NNW,330,16.0,17.0,99,-99.99,,,-99.99,,2013-05-29 13:11:00,
2013-05-29 07:21:00,43.0,43.0,-100.00,NNW,335,15.0,18.0,99,-99.99,,,-99.99,,2013-05-29 13:21:00,
2013-05-29 07:31:00,43.0,43.0,-100.00,NNW,335,14.0,20.0,99,-99.99,,,-99.99,,2013-05-29 13:31:00,
2013-05-29 07:42:00,43.0,43.0,-100.00,NNW,335,12.0,17.0,99,-99.99,,,-99.99,,2013-05-29 13:42:00,
2013-05-29 07:52:00,43.0,43.0,-100.00,NW,325,13.0,15.0,99,-99.99,,,-99.99,,2013-05-29 13:52:00,
2013-05-29 08:01:00,43.0,43.0,-100.00,NW,320,10.0,14.0,99,-99.99,,,-99.99,,2013-05-29 14:01:00,
2013-05-29 08:11:00,43.0,43.0,-100.00,NNW,330,11.0,14.0,99,-99.99,,,-99.99,,2013-05-29 14:11:00,
2013-05-29 08:21:00,43.0,43.0,-100.00,NW,315,11.0,14.0,99,-99.99,,,-99.99,,2013-05-29 14:21:00,
2013-05-29 08:31:00,43.0,43.0,-100.00,NW,305,11.0,14.0,99,-99.99,,,-99.99,,2013-05-29 14:31:00,
2013-05-29 08:41:00,43.0,43.0,-100.00,NW,320,13.0,16.0,99,-99.99,,,-99.99,,2013-05-29 14:41:00,
2013-05-29 08:51:00,43.0,43.0,-100.00,NW,315,12.0,15.0,99,-99.99,,,-99.99,,2013-05-29 14:51:00,
2013-05-29 09:01:00,43.0,43.0,-100.00,NW,320,14.0,17.0,99,-99.99,,,-99.99,,2013-05-29 15:01:00,
2013-05-29 09:11:00,43.0,43.0,-100.00,NNW,335,16.0,20.0,99,-99.99,,,-99.99,,2013-05-29 15:11:00,
2013-05-29 09:21:00,43.0,43.0,-100.00,NNW,345,17.0,20.0,99,-99.99,,,-99.99,,2013-05-29 15:21:00,
2013-05-29 09:32:00,44.0,44.0,-100.00,NNW,345,17.0,22.0,99,-99.99,,,-99.99,,2013-05-29 15:32:00,
2013-05-29 09:42:00,44.0,44.0,-100.00,North,350,17.0,20.0,99,-99.99,,,-99.99,,2013-05-29 15:42:00,
2013-05-29 09:53:00,44.0,44.0,-100.00,NNW,340,12.0,19.0,99,-99.99,,,-99.99,,2013-05-29 15:53:00,
2013-05-29 10:03:00,44.0,44.0,-100.00,North,350,12.0,15.0,99,-99.99,,,-99.99,,2013-05-29 16:03:00,
2013-05-29 10:12:00,44.0,44.0,-100.00,North,350,14.0,16.0,99,-99.99,,,-99.99,,2013-05-29 16:12:00,
2013-05-29 10:22:00,44.0,44.0,-100.00,North,355,14.0,17.0,99,-99.99,,,-99.99,,2013-05-29 16:22:00,
2013-05-29 10:32:00,44.0,44.0,-100.00,NNW,340,15.0,18.0,99,-99.99,,,-99.99,,2013-05-29 16:32:00,
2013-05-29 10:42:00,44.0,44.0,-100.00,North,355,15.0,19.0,99,-99.99,,,-99.99,,2013-05-29 16:42:00,
2013-05-29 10:52:00,45.0,45.0,-100.00,NNW,335,14.0,18.0,99,-99.99,,,-99.99,,2013-05-29 16:52:00,
2013-05-29 11:02:00,45.0,45.0,-100.00,NNW,340,17.0,21.0,99,-99.99,,,-99.99,,2013-05-29 17:02:00,
2013-05-29 11:11:00,45.0,45.0,-100.00,NNW,345,20.0,24.0,98,-99.99,,,-99.99,,2013-05-29 17:11:00,
2013-05-29 11:21:00,45.0,44.0,-100.00,NNW,345,20.0,24.0,95,-99.99,,,-99.99,,2013-05-29 17:21:00,
2013-05-29 11:32:00,45.0,43.0,-100.00,NNW,345,19.0,24.0,91,-99.99,,,-99.99,,2013-05-29 17:32:00,
2013-05-29 11:42:00,45.0,42.0,-100.00,NNW,345,18.0,24.0,90,-99.99,,,-99.99,,2013-05-29 17:42:00,
2013-05-29 11:52:00,45.0,42.0,-100.00,North,355,21.0,24.0,89,-99.99,,,-99.99,,2013-05-29 17:52:00,
2013-05-29 12:01:00,46.0,44.0,-100.00,North,350,18.0,24.0,93,-99.99,,,-99.99,,2013-05-29 18:01:00,
2013-05-29 12:13:00,46.0,43.0,-100.00,North,350,20.0,26.0,87,-99.99,,,-99.99,,2013-05-29 18:13:00,
2013-05-29 12:21:00,46.0,42.0,-100.00,NNW,345,19.0,26.0,86,-99.99,,,-99.99,,2013-05-29 18:21:00,
2013-05-29 12:32:00,46.0,44.0,-100.00,North,350,17.0,24.0,91,-99.99,,,-99.99,,2013-05-29 18:32:00,
2013-05-29 12:41:00,45.0,45.0,-100.00,North,0,21.0,24.0,98,-99.99,,,-99.99,,2013-05-29 18:41:00,
2013-05-29 12:51:00,45.0,45.0,-100.00,North,355,17.0,22.0,99,-99.99,,,-99.99,,2013-05-29 18:51:00,
2013-05-29 13:01:00,45.0,45.0,-100.00,North,0,19.0,22.0,99,-99.99,,,-99.99,,2013-05-29 19:01:00,
2013-05-29 13:11:00,45.0,44.0,-100.00,North,0,21.0,26.0,97,-99.99,,,-99.99,,2013-05-29 19:11:00,
2013-05-29 13:21:00,45.0,44.0,-100.00,North,0,17.0,26.0,95,-99.99,,,-99.99,,2013-05-29 19:21:00,
2013-05-29 13:32:00,46.0,44.0,-100.00,North,355,21.0,25.0,91,-99.99,,,-99.99,,2013-05-29 19:32:00,
2013-05-29 13:44:00,46.0,43.0,-100.00,North,355,17.0,22.0,89,-99.99,,,-99.99,,2013-05-29 19:44:00,
2013-05-29 13:52:00,46.0,43.0,-100.00,North,355,18.0,23.0,87,-99.99,,,-99.99,,2013-05-29 19:52:00,
2013-05-29 14:02:00,46.0,43.0,-100.00,North,0,19.0,24.0,89,-99.99,,,-99.99,,2013-05-29 20:02:00,
2013-05-29 14:11:00,47.0,42.0,-100.00,North,350,24.0,28.0,85,-99.99,,,-99.99,,2013-05-29 20:11:00,
2013-05-29 14:22:00,46.0,42.0,-100.00,North,0,24.0,27.0,83,-99.99,,,-99.99,,2013-05-29 20:22:00,
2013-05-29 14:32:00,47.0,42.0,-100.00,NNW,345,20.0,26.0,82,-99.99,,,-99.99,,2013-05-29 20:32:00,
2013-05-29 14:41:00,47.0,42.0,-100.00,NNW,345,20.0,26.0,82,-99.99,,,-99.99,,2013-05-29 20:41:00,
2013-05-29 14:52:00,47.0,42.0,-100.00,North,0,21.0,23.0,81,-99.99,,,-99.99,,2013-05-29 20:52:00,
2013-05-29 15:02:00,47.0,42.0,-100.00,North,0,18.0,25.0,83,-99.99,,,-99.99,,2013-05-29 21:02:00,
2013-05-29 15:12:00,47.0,42.0,-100.00,North,0,19.0,22.0,82,-99.99,,,-99.99,,2013-05-29 21:12:00,
2013-05-29 15:22:00,47.0,43.0,-100.00,North,0,18.0,24.0,83,-99.99,,,-99.99,,2013-05-29 21:22:00,
2013-05-29 15:33:00,47.0,43.0,-100.00,North,350,20.0,23.0,86,-99.99,,,-99.99,,2013-05-29 21:33:00,
2013-05-29 15:43:00,47.0,44.0,-100.00,North,0,17.0,24.0,88,-99.99,,,-99.99,,2013-05-29 21:43:00,
2013-05-29 15:53:00,47.0,44.0,-100.00,NNW,345,16.0,22.0,89,-99.99,,,-99.99,,2013-05-29 21:53:00,
2013-05-29 16:03:00,47.0,44.0,-100.00,North,0,17.0,22.0,91,-99.99,,,-99.99,,2013-05-29 22:03:00,
2013-05-29 16:12:00,47.0,45.0,-100.00,North,0,17.0,21.0,93,-99.99,,,-99.99,,2013-05-29 22:12:00,
2013-05-29 16:22:00,47.0,45.0,-100.00,North,0,19.0,24.0,93,-99.99,,,-99.99,,2013-05-29 22:22:00,
2013-05-29 16:33:00,47.0,45.0,-100.00,North,0,19.0,23.0,92,-99.99,,,-99.99,,2013-05-29 22:33:00,
2013-05-29 16:42:00,47.0,45.0,-100.00,North,0,17.0,23.0,93,-99.99,,,-99.99,,2013-05-29 22:42:00,
2013-05-29 16:52:00,47.0,45.0,-100.00,North,350,19.0,23.0,93,-99.99,,,-99.99,,2013-05-29 22:52:00,
2013-05-29 17:02:00,46.0,45.0,-100.00,North,0,17.0,24.0,95,-99.99,,,-99.99,,2013-05-29 23:02:00,
2013-05-29 17:12:00,47.0,45.0,-100.00,North,0,21.0,24.0,94,-99.99,,,-99.99,,2013-05-29 23:12:00,
2013-05-29 17:21:00,46.0,44.0,-100.00,North,0,17.0,26.0,91,-99.99,,,-99.99,,2013-05-29 23:21:00,
2013-05-29 17:33:00,47.0,43.0,-100.00,North,0,16.0,22.0,86,-99.99,,,-99.99,,2013-05-29 23:33:00,
2013-05-29 17:42:00,47.0,43.0,-100.00,North,0,14.0,23.0,87,-99.99,,,-99.99,,2013-05-29 23:42:00,
2013-05-29 17:52:00,47.0,44.0,-100.00,North,350,16.0,22.0,87,-99.99,,,-99.99,,2013-05-29 23:52:00,
2013-05-29 18:01:00,47.0,44.0,-100.00,North,350,14.0,21.0,89,-99.99,,,-99.99,,2013-05-30 00:01:00,
2013-05-29 18:11:00,48.0,45.0,-100.00,North,0,14.0,20.0,89,-99.99,,,-99.99,,2013-05-30 00:11:00,
2013-05-29 18:21:00,48.0,45.0,-100.00,North,5,13.0,17.0,87,-99.99,,,-99.99,,2013-05-30 00:21:00,
2013-05-29 18:31:00,48.0,44.0,-100.00,North,0,12.0,18.0,85,-99.99,,,-99.99,,2013-05-30 00:31:00,
2013-05-29 18:41:00,48.0,43.0,-100.00,North,0,16.0,21.0,83,-99.99,,,-99.99,,2013-05-30 00:41:00,
2013-05-29 18:52:00,48.0,43.0,-100.00,North,350,12.0,20.0,83,-99.99,,,-99.99,,2013-05-30 00:52:00,
2013-05-29 19:01:00,48.0,42.0,-100.00,NNW,345,15.0,19.0,81,-99.99,,,-99.99,,2013-05-30 01:01:00,
2013-05-29 19:11:00,48.0,42.0,-100.00,North,350,13.0,17.0,81,-99.99,,,-99.99,,2013-05-30 01:11:00,
2013-05-29 19:21:00,48.0,43.0,-100.00,North,355,11.0,16.0,81,-99.99,,,-99.99,,2013-05-30 01:21:00,
2013-05-29 19:31:00,49.0,43.0,-100.00,North,0,14.0,16.0,79,-99.99,,,-99.99,,2013-05-30 01:31:00,
2013-05-29 19:41:00,48.0,42.0,-100.00,North,0,14.0,18.0,77,-99.99,,,-99.99,,2013-05-30 01:41:00,
2013-05-29 19:52:00,48.0,41.0,-100.00,North,355,12.0,16.0,77,-99.99,,,-99.99,,2013-05-30 01:52:00,
2013-05-29 20:01:00,48.0,42.0,-100.00,NNW,335,6.0,9.0,77,-99.99,,,-99.99,,2013-05-30 02:01:00,
2013-05-29 20:11:00,48.0,41.0,-100.00,NNW,345,6.0,9.0,77,-99.99,,,-99.99,,2013-05-30 02:11:00,
2013-05-29 20:21:00,47.0,42.0,-100.00,North,10,7.0,13.0,79,-99.99,,,-99.99,,2013-05-30 02:21:00,
2013-05-29 20:31:00,47.0,42.0,-100.00,NNE,20,7.0,9.0,81,-99.99,,,-99.99,,2013-05-30 02:31:00,
2013-05-29 20:42:00,47.0,42.0,-100.00,NNE,20,7.0,9.0,81,-99.99,,,-99.99,,2013-05-30 02:42:00,
2013-05-29 20:52:00,47.0,42.0,-100.00,NNE,20,7.0,9.0,81,-99.99,,,-99.99,,2013-05-30 02:52:00,
2013-05-29 21:01:00,46.0,44.0,-100.00,NNE,15,6.0,7.0,93,-99.99,,,-99.99,,2013-05-30 03:01:00,
2013-05-29 21:11:00,46.0,44.0,-100.00,NNE,15,11.0,12.0,90,-99.99,,,-99.99,,2013-05-30 03:11:00,
2013-05-29 21:21:00,46.0,43.0,-100.00,North,0,16.0,17.0,90,-99.99,,,-99.99,,2013-05-30 03:21:00,
2013-05-29 21:32:00,45.0,43.0,-100.00,North,10,12.0,17.0,92,-99.99,,,-99.99,,2013-05-30 03:32:00,
2013-05-29 21:42:00,45.0,44.0,-100.00,North,0,9.0,16.0,93,-99.99,,,-99.99,,2013-05-30 03:42:00,
2013-05-29 21:53:00,45.0,44.0,-100.00,NNW,345,7.0,11.0,93,-99.99,,,-99.99,,2013-05-30 03:53:00,
2013-05-29 22:02:00,45.0,44.0,-100.00,NNW,335,6.0,9.0,94,-99.99,,,-99.99,,2013-05-30 04:02:00,
2013-05-29 22:12:00,45.0,44.0,-100.00,NNW,335,9.0,11.0,94,-99.99,,,-99.99,,2013-05-30 04:12:00,
2013-05-29 22:22:00,45.0,44.0,-100.00,North,355,8.0,12.0,95,-99.99,,,-99.99,,2013-05-30 04:22:00,
2013-05-29 22:32:00,44.0,44.0,-100.00,NNW,330,5.0,8.0,97,-99.99,,,-99.99,,2013-05-30 04:32:00,
2013-05-29 22:42:00,44.0,44.0,-100.00,NW,325,6.0,7.0,98,-99.99,,,-99.99,,2013-05-30 04:42:00,
2013-05-29 22:52:00,44.0,44.0,-100.00,West,270,3.0,6.0,99,-99.99,,,-99.99,,2013-05-30 04:52:00,
2013-05-29 23:02:00,44.0,44.0,-100.00,West,275,3.0,4.0,99,-99.99,,,-99.99,,2013-05-30 05:02:00,
2013-05-29 23:12:00,44.0,44.0,-100.00,WNW,290,3.0,4.0,99,-99.99,,,-99.99,,2013-05-30 05:12:00,
2013-05-29 23:21:00,44.0,44.0,-100.00,NNW,330,4.0,6.0,99,-99.99,,,-99.99,,2013-05-30 05:21:00,
2013-05-29 23:32:00,44.0,44.0,-100.00,WNW,295,1.0,4.0,99,-99.99,,,-99.99,,2013-05-30 05:32:00,
2013-05-29 23:42:00,44.0,44.0,-100.00,NW,320,0.0,2.0,99,-99.99,,,-99.99,,2013-05-30 05:42:00,
2013-05-29 23:52:00,44.0,44.0,-100.00,South,180,1.0,2.0,99,-99.99,,,-99.99,,2013-05-30 05:52:00,